Regional Weather Roundup
Issued by NWS Albany, NY

Home | Current Version | Previous Version | Text Only | Print | Product List | Glossary On
Versions: 1 2 3 4 5 6 7 8 9 10 11 12 13 14 15 16 17 18 19 20 21 22 23 24 25 26 27 28 29 30 31 32 33 34 35 36 37 38 39 40 41 42 43 44 45 46 47 48 49 50
872
ASUS41 KALY 231510
RWRALY

NEW YORK STATE HOURLY WEATHER ROUNDUP
NATIONAL WEATHER SERVICE ALBANY NY
1100 AM EDT SAT SEP 23 2017

NOTE: "FAIR" INDICATES FEW OR NO CLOUDS BELOW 12,000 FEET WITH NO
SIGNIFICANT WEATHER AND/OR NO OBSTRUCTIONS TO VISIBILITY.

NYZ032-033-038>043-046>054-057>066-NYZ062>081-082-084-231600-
EAST


CITY           SKY/WX    TMP DP  RH WIND       PRES   REMARKS
ALBANY         MOSUNNY   72  57  59 VRB6      30.11F
GLENS FALLS    SUNNY     71  53  52 CALM      30.10F
POUGHKEEPSIE   SUNNY     74  54  49 W3        30.07F
NEWBURGH       SUNNY     75  55  50 E9        30.11S
MONTGOMERY     SUNNY     75  56  51 CALM      30.08F
WHITE PLAINS   SUNNY     78  57  48 N14       30.06R
ISLIP          MOSUNNY   78  61  55 N14G23    30.02S
NEW YORK CITY  MOSUNNY   77  56  48 N12G23    30.05S
CENTRAL PARK   SUNNY     77  56  48 VRB3      30.08S
$$

NYZ005>009-017-018-044>046-055-056-231600-
CENTRAL


CITY           SKY/WX    TMP DP  RH WIND       PRES   REMARKS
FULTON         SUNNY     75  58  55 CALM      30.14S
SYRACUSE       MOSUNNY   72  56  57 SW3       30.13F
ROME           PTSUNNY   65  61  87 CALM      30.15F
ELMIRA         SUNNY     70  59  68 CALM      30.16F
BINGHAMTON     SUNNY     70  54  56 NW5       30.16F
MONTICELLO     SUNNY     74  55  51 NW7       30.15S
$$

NYZ026>034-041>043-087-231600-
NORTH


CITY           SKY/WX    TMP DP  RH WIND       PRES   REMARKS
WATERTOWN      SUNNY     75  63  66 SW9       30.12S
FORT DRUM      NOT AVBL
OGDENSBURG     FAIR      78  63  60 S5        30.08F
MASSENA        SUNNY     76  61  59 S10       30.09S
SARANAC LAKE   SUNNY     70  51  51 S6        30.14F
PLATTSBURGH    SUNNY     68  57  68 SE6       30.10S
$$

NYZ001>004-010>016-019>021-085-231600-
WEST


CITY           SKY/WX    TMP DP  RH WIND       PRES   REMARKS
NIAGARA FALLS  SUNNY     79  62  56 S6        30.14F
BUFFALO        MOSUNNY   76  57  51 S7        30.16S
DUNKIRK        SUNNY     76  61  59 S3        30.17S
JAMESTOWN      SUNNY     73  61  65 CALM      30.22R
WELLSVILLE     SUNNY     77  43  29 CALM      30.23S
ROCHESTER      SUNNY     76  54  46 W3        30.15F
PENN YAN       SUNNY     73  60  63 W5        30.17S
$$

             KEY
       WCI = WIND CHILL INDEX
       VSB = VISIBILITY
       HX  = HEAT INDEX
$$




USA.gov is the U.S. government's official web portal to all federal, state and local government web resources and services.